• Em Portugal
  • Lista de países
  • Para 7 dias
  • Temperatura da água
  • Mapas de satélite
  • Mapa do tempo
  • Widgets de tempo
  • user-avatar
    Iniciar Sessão

    Previsão horária em Barancevo

    Hoje, 16 Julho, Segunda-feira

    Tempo Temperatura Precipitação Vento Pressão Humidade
    00:00 +19°C° 0 mm 1 m/s 743 mmHg 95%
    01:00 +19°C° 0 mm 1 m/s 743 mmHg 96%
    02:00 +19°C° 0 mm 1 m/s 743 mmHg 96%
    03:00 +19°C° 0,2 mm 1 m/s 743 mmHg 97%
    04:00 +19°C° 0,2 mm 1 m/s 743 mmHg 97%
    05:00 +18°C° 0,2 mm 2 m/s 743 mmHg 97%
    06:00 +19°C° 0 mm 2 m/s 744 mmHg 93%
    07:00 +21°C° 0 mm 2 m/s 744 mmHg 89%
    08:00 +24°C° 0 mm 2 m/s 744 mmHg 83%
    09:00 +25°C° 0,3 mm 3 m/s 744 mmHg 76%
    10:00 +26°C° 0,3 mm 3 m/s 744 mmHg 68%
    11:00 +27°C° 0,3 mm 4 m/s 743 mmHg 61%
    12:00 +28°C° 0,1 mm 4 m/s 743 mmHg 58%
    13:00 +29°C° 0,1 mm 4 m/s 743 mmHg 56%
    14:00 +29°C° 0,1 mm 4 m/s 743 mmHg 53%
    15:00 +29°C° 0,3 mm 4 m/s 743 mmHg 58%
    16:00 +28°C° 0,3 mm 3 m/s 743 mmHg 63%
    17:00 +28°C° 0,3 mm 3 m/s 743 mmHg 68%
    18:00 +26°C° 0,1 mm 3 m/s 743 mmHg 73%
    19:00 +25°C° 0,1 mm 2 m/s 742 mmHg 78%
    20:00 +23°C° 0,1 mm 2 m/s 742 mmHg 84%
    21:00 +23°C° 0 mm 2 m/s 742 mmHg 85%
    22:00 +21°C° 0 mm 2 m/s 742 mmHg 85%
    23:00 +20°C° 0 mm 2 m/s 743 mmHg 86%

    Amanhã, 17 Julho, Terça-feira

    Tempo Temperatura Precipitação Vento Pressão Humidade
    00:00 +20°C° 0 mm 2 m/s 743 mmHg 87%
    01:00 +19°C° 0 mm 2 m/s 743 mmHg 88%
    02:00 +19°C° 0 mm 2 m/s 743 mmHg 89%
    03:00 +19°C° 0 mm 3 m/s 743 mmHg 89%
    04:00 +19°C° 0 mm 3 m/s 743 mmHg 89%
    05:00 +19°C° 0 mm 3 m/s 742 mmHg 88%
    06:00 +21°C° 0 mm 4 m/s 742 mmHg 82%
    07:00 +22°C° 0 mm 4 m/s 742 mmHg 77%
    08:00 +25°C° 0 mm 4 m/s 742 mmHg 71%
    09:00 +26°C° 0 mm 5 m/s 742 mmHg 66%
    10:00 +28°C° 0 mm 5 m/s 742 mmHg 60%
    11:00 +29°C° 0 mm 5 m/s 742 mmHg 55%
    12:00 +30°C° 0 mm 5 m/s 742 mmHg 53%
    13:00 +30°C° 0 mm 5 m/s 742 mmHg 50%
    14:00 +32°C° 0 mm 5 m/s 741 mmHg 47%
    15:00 +30°C° 0 mm 5 m/s 741 mmHg 49%
    16:00 +30°C° 0 mm 5 m/s 741 mmHg 50%
    17:00 +30°C° 0 mm 5 m/s 741 mmHg 51%
    18:00 +28°C° 0 mm 4 m/s 741 mmHg 56%
    19:00 +26°C° 0 mm 4 m/s 741 mmHg 61%
    20:00 +25°C° 0 mm 3 m/s 741 mmHg 66%
    21:00 +24°C° 0 mm 3 m/s 741 mmHg 67%
    22:00 +22°C° 0 mm 3 m/s 741 mmHg 68%
    23:00 +21°C° 0 mm 3 m/s 741 mmHg 69%

    Depois de amanhã, 18 Julho, Quarta-feira

    Tempo Temperatura Precipitação Vento Pressão Humidade
    00:00 +21°C° 0 mm 3 m/s 741 mmHg 71%
    01:00 +20°C° 0 mm 3 m/s 741 mmHg 73%
    02:00 +20°C° 0 mm 3 m/s 741 mmHg 74%
    03:00 +19°C° 0 mm 3 m/s 741 mmHg 75%
    04:00 +19°C° 0 mm 3 m/s 741 mmHg 76%
    05:00 +19°C° 0 mm 3 m/s 741 mmHg 77%
    06:00 +20°C° 0 mm 4 m/s 741 mmHg 74%
    07:00 +22°C° 0 mm 4 m/s 741 mmHg 70%
    08:00 +23°C° 0 mm 5 m/s 741 mmHg 66%
    09:00 +25°C° 0 mm 5 m/s 741 mmHg 65%
    10:00 +25°C° 0 mm 5 m/s 741 mmHg 64%
    11:00 +26°C° 0 mm 5 m/s 740 mmHg 63%
    12:00 +25°C° 0,9 mm 5 m/s 740 mmHg 69%
    13:00 +25°C° 0,9 mm 5 m/s 740 mmHg 75%
    14:00 +23°C° 0,9 mm 5 m/s 740 mmHg 80%
    15:00 +23°C° 0,1 mm 5 m/s 740 mmHg 77%
    16:00 +23°C° 0,1 mm 4 m/s 740 mmHg 73%
    17:00 +23°C° 0,1 mm 4 m/s 740 mmHg 69%
    18:00 +22°C° 0,4 mm 4 m/s 740 mmHg 76%
    19:00 +21°C° 0,4 mm 3 m/s 740 mmHg 83%
    20:00 +20°C° 0,4 mm 3 m/s 740 mmHg 90%
    21:00 +19°C° 0,2 mm 3 m/s 740 mmHg 91%
    22:00 +19°C° 0,2 mm 3 m/s 740 mmHg 93%
    23:00 +19°C° 0,2 mm 3 m/s 740 mmHg 94%

    19 Julho, Quinta-feira

    Tempo Temperatura Precipitação Vento Pressão Humidade
    00:00 +19°C° 0,1 mm 3 m/s 740 mmHg 95%
    01:00 +18°C° 0,1 mm 3 m/s 740 mmHg 96%
    02:00 +18°C° 0,1 mm 3 m/s 740 mmHg 96%
    03:00 +18°C° 0,3 mm 3 m/s 740 mmHg 97%
    04:00 +18°C° 0,3 mm 3 m/s 740 mmHg 97%
    05:00 +18°C° 0,3 mm 3 m/s 740 mmHg 97%
    06:00 +18°C° 0,1 mm 3 m/s 740 mmHg 96%
    07:00 +19°C° 0,1 mm 3 m/s 740 mmHg 95%
    08:00 +19°C° 0,1 mm 3 m/s 740 mmHg 95%
    09:00 +20°C° 0,1 mm 3 m/s 740 mmHg 92%
    10:00 +20°C° 0,1 mm 3 m/s 740 mmHg 90%
    11:00 +21°C° 0,1 mm 3 m/s 740 mmHg 88%
    12:00 +22°C° 0,1 mm 3 m/s 740 mmHg 82%
    13:00 +22°C° 0,1 mm 4 m/s 740 mmHg 76%
    14:00 +23°C° 0,1 mm 4 m/s 740 mmHg 70%
    15:00 +25°C° 0,2 mm 4 m/s 740 mmHg 71%
    16:00 +25°C° 0,2 mm 3 m/s 740 mmHg 72%
    17:00 +25°C° 0,2 mm 3 m/s 740 mmHg 73%
    18:00 +24°C° 0,2 mm 3 m/s 739 mmHg 80%
    19:00 +21°C° 0,2 mm 2 m/s 739 mmHg 86%
    20:00 +20°C° 0,2 mm 2 m/s 739 mmHg 93%
    21:00 +19°C° 0 mm 2 m/s 739 mmHg 94%
    22:00 +19°C° 0 mm 2 m/s 739 mmHg 96%
    23:00 +18°C° 0 mm 2 m/s 739 mmHg 98%

    20 Julho, Sexta-feira

    Tempo Temperatura Precipitação Vento Pressão Humidade
    00:00 +18°C° 0 mm 2 m/s 739 mmHg 98%
    01:00 +17°C° 0 mm 2 m/s 739 mmHg 98%
    02:00 +17°C° 0 mm 2 m/s 739 mmHg 98%
    03:00 +17°C° 0 mm 2 m/s 739 mmHg 98%
    04:00 +17°C° 0 mm 2 m/s 739 mmHg 98%
    05:00 +17°C° 0 mm 2 m/s 739 mmHg 99%
    06:00 +18°C° 0 mm 2 m/s 739 mmHg 97%
    07:00 +19°C° 0 mm 2 m/s 739 mmHg 95%
    08:00 +20°C° 0 mm 2 m/s 739 mmHg 93%
    09:00 +20°C° 0,1 mm 2 m/s 739 mmHg 90%
    10:00 +21°C° 0,1 mm 2 m/s 739 mmHg 88%
    11:00 +23°C° 0,1 mm 2 m/s 738 mmHg 85%
    12:00 +24°C° 0,5 mm 2 m/s 738 mmHg 82%
    13:00 +25°C° 0,5 mm 2 m/s 738 mmHg 78%
    14:00 +26°C° 0,5 mm 2 m/s 738 mmHg 74%
    15:00 +26°C° 0,9 mm 2 m/s 738 mmHg 75%
    16:00 +26°C° 0,9 mm 2 m/s 738 mmHg 77%
    17:00 +26°C° 0,9 mm 1 m/s 737 mmHg 78%
    18:00 +25°C° 0,2 mm 1 m/s 737 mmHg 83%
    19:00 +24°C° 0,2 mm 1 m/s 737 mmHg 87%
    20:00 +22°C° 0,2 mm 1 m/s 737 mmHg 92%
    21:00 +22°C° 0 mm 1 m/s 737 mmHg 93%
    22:00 +21°C° 0 mm 1 m/s 737 mmHg 95%
    23:00 +20°C° 0 mm 1 m/s 737 mmHg 96%

    21 Julho, Sábado

    Tempo Temperatura Precipitação Vento Pressão Humidade
    00:00 +18°C° 0 mm 0 m/s 737 mmHg 96%
    01:00 +18°C° 0 mm 0 m/s 737 mmHg 97%
    02:00 +17°C° 0 mm 0 m/s 737 mmHg 97%
    03:00 +17°C° 0 mm 0 m/s 737 mmHg 97%
    04:00 +18°C° 0 mm 0 m/s 738 mmHg 97%
    05:00 +18°C° 0 mm 0 m/s 738 mmHg 97%
    06:00 +19°C° 0 mm 0 m/s 738 mmHg 93%
    07:00 +21°C° 0 mm 0 m/s 738 mmHg 90%
    08:00 +24°C° 0 mm 1 m/s 738 mmHg 86%
    09:00 +25°C° 0,7 mm 1 m/s 738 mmHg 83%
    10:00 +26°C° 0,7 mm 1 m/s 738 mmHg 81%
    11:00 +27°C° 0,7 mm 1 m/s 738 mmHg 78%
    12:00 +27°C° 0,6 mm 1 m/s 737 mmHg 75%
    13:00 +28°C° 0,6 mm 1 m/s 737 mmHg 72%
    14:00 +28°C° 0,6 mm 1 m/s 737 mmHg 69%
    15:00 +28°C° 0,1 mm 1 m/s 737 mmHg 67%
    16:00 +28°C° 0,1 mm 1 m/s 737 mmHg 66%
    17:00 +28°C° 0,1 mm 1 m/s 737 mmHg 65%
    18:00 +27°C° 0,1 mm 1 m/s 737 mmHg 72%
    19:00 +25°C° 0,1 mm 1 m/s 737 mmHg 79%
    20:00 +24°C° 0,1 mm 1 m/s 737 mmHg 86%
    21:00 +23°C° 0,2 mm 1 m/s 737 mmHg 89%
    22:00 +20°C° 0,2 mm 0 m/s 737 mmHg 91%
    23:00 +19°C° 0,2 mm 0 m/s 737 mmHg 94%
    Mostrar mais